Regional Weather Roundup
Issued by NWS

Home | Current Version | Previous Version | Graphics & Text | Print | Product List | Glossary On
Versions: 1 2 3 4 5 6 7 8 9 10 11 12 13 14 15 16 17 18 19 20 21 22 23 24 25 26 27 28 29 30 31 32 33 34 35 36 37 38 39 40 41 42 43 44 45 46 47 48 49 50
000
ASUS44 KMEG 292310
RWRTN
TENNESSEE HOURLY STATE WEATHER ROUNDUP
NATIONAL WEATHER SERVICE MEMPHIS TN
600 PM CDT FRI AUG 29 2014

TNZ002-004-019-021-049-052-054-088>092-300000-
WEST TENNESSEE

CITY           SKY/WX    TMP DP  RH WIND       PRES   REMARKS
MEMPHIS INTL   MOSUNNY   92  65  40 S13       29.92S HX  94
NWS MEMPHIS      N/A     93 N/A N/A MISG        N/A
JACKSON        SUNNY     87  69  54 S5        29.95R HX  91
DYERSBURG      MOSUNNY   88  64  45 S5        29.93S
UNION CITY     MOSUNNY   84  70  61 S5        29.93R
PARIS          SUNNY     86  64  48 S8        29.96S
LEXINGTON      SUNNY     88  64  45 S6        29.96S
SAVANNAH       SUNNY     88  66  48 S6        29.98S HX  90
$$

TNZ008-025-027-028-033-062-065-066-300000-
NORTH MIDDLE TENNESSEE

CITY           SKY/WX    TMP DP  RH WIND       PRES   REMARKS
NASHVILLE      PTSUNNY   89  57  33 S13G21    29.99S
DICKSON        MOSUNNY   88  63  42 S5        29.99S
PORTLAND       PTSUNNY   88  59  37 S10       29.99S
CLARKSVILLE    SUNNY     87  64  46 S7        29.97R
LEBANON        MOSUNNY   87  61  41 S8        29.99
SMYRNA         MOSUNNY   89  60  37 S8        30.00R
COOKEVILLE     MOSUNNY   86  70  58 CALM      30.04S HX  90
GALLATIN       MOSUNNY   89  60  37 S3        30.00S
CROSSVILLE     SUNNY     82  56  40 S5        30.10R
$$

TNZ061-075-076-078-094-096-097-300000-
SOUTH MIDDLE TENNESSEE

CITY           SKY/WX    TMP DP  RH WIND       PRES   REMARKS
LEWISBURG      MOSUNNY   89  64  43 SE7       30.00S HX  90
FAYETTEVILLE   SUNNY     82  63  51 SE6       30.03S
TULLAHOMA      SUNNY     84  61  45 SE5       30.05S
WINCHESTER     SUNNY     84  66  54 S3        30.03F
MCMINNVILLE    SUNNY     88  66  48 CALM      30.04S HX  90
COLUMBIA       SUNNY     90  66  45 S3        29.99R HX  92
SHELBYVILLE    SUNNY     84  64  51 SE6       30.03R
$$

TNZ017-018-042-046-047-300000-
NORTHEAST TENNESSEE

CITY           SKY/WX    TMP DP  RH WIND       PRES   REMARKS
TRI CITIES     PTSUNNY   86  70  58 CALM      30.07S HX  90
ELIZABETHTON   CLEAR     81  68  65 NE5       30.09S
$$

TNZ012-013-036-069-073-074-300000-
CENTRAL EAST TENNESSEE

CITY           SKY/WX    TMP DP  RH WIND       PRES   REMARKS
KNOXVILLE      MOSUNNY   89  64  43 SW8       30.03R HX  90
OAK RIDGE      SUNNY     90  62  39 VRB3      30.05S HX  90
GATLINBURG     CLEAR     90  64  43 W3        30.03S HX  91
MORRISTOWN     CLEAR     88  66  48 W5        30.07S HX  90
$$

TNZ083-085-099-300000-
SOUTHEAST TENNESSEE

CITY           SKY/WX    TMP DP  RH WIND       PRES   REMARKS
CHATTANOOGA    PTSUNNY   91  56  30 SW7       30.02S
$$

SKY/WX REPORTED AS FAIR MEANS FEW OR NO CLOUDS BELOW
12 THOUSAND FEET.



USA.gov is the U.S. government's official web portal to all federal, state and local government web resources and services.